EHI
25 24 21 18 18 20 19 16 13 12 12 11 10 9 9 11 13 12 7 3 2 2 2 1 1 3 6 8 8 7 8 8 5 5 4 4 3 2 1 1 1 2 2
24 24 21 19 20 20 18 14 11 10 10 9 8 9 9 11 11 9 5 2 2 2 2 2 1 3 8 11 10 8 7 7 6 6 6 7 7 5 3 2 1 2 3
24 24 22 22 23 21 17 13 10 8 8 8 8 8 9 9 8 5 3 2 2 3 4 3 2 5 9 12 11 8 6 6 7 8 8 9 9 8 6 4 3 3 3
25 25 25 25 24 20 16 14 11 9 10 10 9 9 8 8 5 2 2 2 3 4 5 4 4 5 8 9 9 8 7 5 6 8 9 8 8 9 8 5 4 3 2
27 26 26 26 24 20 17 16 14 13 14 13 11 9 7 6 3 1 1 1 3 4 5 5 5 5 5 5 5 6 6 5 5 5 6 6 6 7 7 4 3 2 2
29 28 27 27 24 21 20 20 18 18 19 16 11 7 5 3 1 0 0 1 2 4 4 4 4 5 4 3 2 2 3 4 4 3 3 3 4 4 4 3 2 2 2
32 31 30 28 26 25 25 24 24 23 22 19 12 7 4 2 1 1 0 0 2 3 4 4 5 6 6 4 2 1 1 1 2 2 2 3 3 3 3 3 2 3 3
35 33 30 28 26 27 28 27 26 26 24 21 15 10 6 3 2 1 0 1 3 4 5 7 8 7 6 5 3 2 2 1 1 1 2 2 2 2 2 3 3 3 3
35 32 29 25 23 25 28 28 26 25 24 21 18 13 7 3 1 0 1 2 4 5 7 8 8 6 4 2 1 1 2 2 1 1 1 1 0 1 1 1 2 2 2
33 31 28 26 24 25 27 26 24 23 21 18 16 12 7 2 0 0 1 3 5 6 7 7 5 3 2 1 0 0 1 1 1 0 0 0 0 0 0 0 1 1 1
33 31 30 29 27 26 27 25 23 20 18 16 14 11 6 3 1 1 1 2 5 6 5 4 3 1 1 0 0 0 0 0 0 0 0 0 0 0 0 0 0 0 0
31 30 30 30 30 27 26 23 20 18 17 16 14 10 7 4 3 1 1 1 2 4 4 3 2 1 0 0 0 0 0 0 0 0 0 0 0 0 0 0 0 0 0
28 29 28 28 28 26 23 20 17 16 16 16 14 10 7 5 3 2 1 0 0 1 2 2 1 0 0 0 0 0 0 0 0 0 0 0 0 0 0 0 0 0 0
28 28 27 24 22 21 18 15 13 13 13 13 12 10 6 4 3 3 2 1 1 0 1 1 0 0 0 0 0 0 0 0 0 0 0 0 0 0 0 0 0 0 0
28 27 23 18 15 15 13 11 11 10 9 9 9 8 5 3 3 2 2 2 1 0 0 0 0 0 0 0 0 0 0 0 0 0 0 0 0 0 0 0 0 0 0
26 23 16 12 12 11 10 10 9 7 5 4 5 4 3 2 1 1 1 1 1 0 0 0 0 0 0 0 0 0 0 0 0 0 0 0 0 0 0 0 0 0 0
22 18 13 10 10 10 10 10 8 5 2 1 1 1 1 1 0 0 0 0 0 0 0 0 0 0 0 0 0 0 0 0 0 0 0 0 0 0 0 0 0 0 0
17 15 11 10 10 10 10 10 9 6 3 1 0 0 0 0 0 0 0 0 0 0 0 0 0 0 0 0 0 0 0 0 0 0 0 0 0 0 0 0 0 0 0
14 12 10 10 10 10 10 9 9 7 5 2 1 0 0 0 0 0 0 0 0 0 0 0 0 0 0 0 0 0 0 0 0 0 0 0 0 0 0 0 0 0 0
12 11 9 9 9 9 9 8 6 5 4 3 1 0 0 0 0 0 0 0 0 0 0 0 0 0 0 0 0 0 0 0 0 0 0 0 0 0 0 0 0 0 0
10 8 7 7 7 6 6 5 4 3 3 3 1 0 0 0 0 0 0 0 0 0 0 0 0 0 0 0 0 0 0 0 0 0 0 0 0 0 0 0 0 0 0
7 7 6 5 4 3 3 3 2 2 2 2 1 0 0 0 0 0 0 0 0 0 0 0 0 0 0 0 0 0 0 0 0 0 0 0 0 0 0 0 0 0 0
6 5 4 3 2 1 1 1 1 1 1 1 1 0 0 0 0 0 0 0 0 0 0 0 0 0 0 0 0 0 0 0 0 0 0 0 0 0 0 0 0 0 0
5 3 1 1 1 0 0 0 0 0 0 0 0 0 0 0 0 0 0 0 0 0 0 0 0 0 0 0 0 0 0 0 0 0 0 0 0 0 0 0 0 0 0
3 2 0 0 0 0 0 0 0 0 0 0 0 0 0 0 0 0 0 0 0 0 0 0 0 0 0 0 0 0 0 0 0 0 0 0 0 0 0 0 0 0 0
1 1 0 0 0 0 0 0 0 0 0 0 0 0 0 0 0 0 0 0 0 0 0 0 0 0 0 0 0 0 0 0 0 0 0 0 0 0 0 0 0 0 0
Wind_Speed
3 2 2 2 2 2 1 0 1 1 1 1 1 1 1 1 1 1 2 2 2 2 3 3 3 4 3 3 2 2 2 2 3 1 1 2 2 1 2 1 1 2 3
3 3 2 2 2 1 1 1 0 0 0 1 1 1 1 1 1 1 2 2 2 2 3 3 3 2 2 2 2 2 2 2 3 3 2 2 2 2 2 2 1 1 2
4 4 3 3 2 2 1 1 1 0 0 1 1 1 1 1 1 1 2 2 2 2 2 2 2 2 2 1 2 2 2 2 3 3 3 2 2 2 2 2 2 1 2
4 4 3 2 2 2 2 2 1 1 1 1 1 1 1 2 2 2 2 2 2 2 3 3 2 2 2 1 1 1 1 2 3 2 2 3 2 2 2 2 2 2 1
4 3 3 2 2 2 2 2 2 2 2 2 1 1 1 1 3 3 2 1 2 2 2 2 3 3 4 3 2 1 1 2 2 3 2 2 3 3 2 2 2 2 2
4 3 3 3 3 2 2 2 2 2 2 2 2 2 2 3 5 4 3 1 1 1 2 2 2 2 3 3 3 3 3 1 1 2 2 2 2 2 2 2 2 2 2
3 3 3 3 3 2 3 3 3 2 2 2 1 2 2 4 4 4 4 2 1 2 2 2 1 2 1 1 3 3 3 3 3 2 0 0 1 1 2 3 2 2 1
3 3 3 3 3 3 3 2 2 2 2 2 1 2 3 4 5 3 3 0 2 2 2 2 2 2 3 2 1 3 3 2 2 1 2 2 1 0 1 1 1 2 2
4 3 3 3 3 3 3 2 2 2 2 2 2 2 2 3 5 3 4 1 2 2 3 4 3 3 5 4 1 1 2 2 4 3 3 3 3 2 2 1 2 2 2
4 3 3 3 2 2 2 2 2 2 2 2 3 2 3 3 4 3 4 0 2 2 2 3 6 4 4 4 1 1 1 1 1 3 2 2 2 2 2 2 1 2 1
4 4 4 4 3 3 2 2 3 3 3 3 3 3 3 3 3 3 3 2 1 1 1 2 4 4 3 3 2 2 2 2 1 1 2 2 2 1 2 1 1 2 2
4 4 4 4 3 3 3 3 3 3 4 3 3 2 2 3 3 2 2 3 4 2 1 2 4 3 2 2 2 3 2 3 1 1 1 1 1 0 1 0 1 2 2
5 5 4 4 3 3 3 3 3 2 2 2 2 2 2 2 3 3 2 1 1 1 3 4 3 1 3 2 1 2 2 1 1 0 0 1 1 1 0 1 2 2 2
5 5 5 4 4 3 2 2 2 2 2 2 2 1 2 2 2 1 2 3 3 2 2 3 3 2 1 1 2 2 1 1 2 1 1 1 1 0 1 1 1 2 2
5 4 4 4 4 4 3 3 2 3 2 1 1 1 1 2 2 3 2 1 1 1 0 1 1 1 1 1 1 1 0 0 1 1 1 1 1 0 1 1 2 2 2
5 4 4 4 4 4 5 5 7 5 6 5 5 3 4 5 4 2 2 3 2 2 2 1 0 0 0 0 0 0 0 1 1 2 1 1 1 1 1 1 2 3 3
4 4 3 4 4 4 4 4 5 5 5 5 4 4 3 4 3 2 2 1 1 2 1 0 0 1 1 1 1 1 1 1 2 2 2 2 2 2 2 2 2 3 3
4 4 3 4 4 3 3 3 4 4 5 4 4 4 4 3 3 2 2 2 2 1 0 1 1 1 1 2 2 2 2 1 1 2 2 2 3 3 3 3 2 3 4
3 3 3 3 4 4 4 3 3 4 3 4 4 4 4 4 4 3 3 1 0 0 0 1 1 1 1 1 2 2 2 2 2 3 2 3 3 3 3 3 3 2 4
3 4 2 3 3 4 4 3 3 3 3 3 3 3 4 3 2 2 1 0 0 0 1 0 1 1 1 1 1 2 2 2 2 3 3 3 3 4 4 4 4 3 3
3 5 4 4 3 3 3 4 4 3 3 3 3 3 1 2 2 1 1 1 0 0 0 1 1 1 1 1 1 2 3 2 2 3 3 3 3 3 4 4 4 4 4
3 4 4 3 3 3 3 3 3 3 3 3 3 4 3 3 1 1 0 0 0 0 0 1 1 0 1 1 1 2 2 2 2 3 3 3 3 3 4 4 4 4 4
4 4 4 3 3 4 4 3 3 3 3 3 3 3 3 2 1 1 0 0 0 0 0 0 1 1 0 1 1 1 2 2 3 3 4 3 3 3 3 4 5 5 5
4 4 4 4 4 4 3 3 3 3 3 2 2 2 2 2 1 1 1 1 1 1 1 1 0 0 1 1 1 1 2 4 5 3 4 4 4 4 4 4 5 5 4
3 4 3 3 3 3 3 3 3 3 3 2 2 2 2 2 2 2 1 1 1 1 1 1 1 1 1 1 1 2 3 3 4 6 5 4 4 4 4 5 5 5 4
4 4 3 3 3 3 3 3 2 2 2 2 2 2 2 2 2 2 2 2 2 2 2 1 1 1 1 1 1 2 0 1 3 5 7 5 4 4 5 5 5 5 4
Wind_Direction
172 173 182 174 174 175 194 315 356 335 338 328 304 301 313 320 307 280 275 267 269 276 277 272 273 280 269 252 236 231 231 235 242 244 168 147 164 202 137 147 144 143 116
157 159 165 171 170 171 151 135 114 39 343 42 358 337 339 17 358 331 306 308 299 299 300 301 293 279 266 257 237 224 230 229 219 216 196 171 178 173 152 182 135 111 102
156 163 165 173 164 166 163 141 117 118 78 80 70 32 20 33 29 8 347 335 331 329 324 319 314 306 286 270 245 232 223 208 208 204 191 164 168 160 167 153 135 134 134
165 165 164 171 170 170 163 148 133 129 114 93 86 61 35 33 28 14 357 354 350 353 353 348 346 336 324 303 262 242 238 230 208 200 187 164 157 165 181 178 168 161 152
166 164 165 164 157 163 158 144 135 134 125 103 79 67 42 36 30 9 345 8 1 0 11 11 26 33 26 12 349 323 236 229 212 192 189 182 173 174 193 199 168 150 134
169 170 167 157 149 153 150 137 131 128 111 98 78 65 53 43 36 12 340 10 9 9 19 22 55 72 79 78 53 36 11 283 228 206 191 190 177 185 199 201 172 177 167
161 165 157 152 150 154 153 145 142 139 125 118 109 88 65 50 40 25 355 345 19 28 22 8 17 57 65 93 121 129 79 36 3 314 328 287 200 199 209 198 192 208 198
158 161 156 161 158 156 154 151 148 143 137 131 115 96 79 55 43 28 342 70 56 51 41 28 33 36 31 10 85 97 94 78 40 9 17 343 358 0 226 216 170 159 158
159 161 161 160 161 161 161 160 155 153 145 134 111 98 84 68 42 17 332 103 88 69 57 45 28 43 14 347 25 97 106 115 100 78 48 45 44 24 316 225 179 187 186
160 155 152 151 160 165 167 166 155 154 146 133 112 104 93 79 55 23 329 115 89 83 79 76 53 27 19 355 13 87 87 74 97 124 129 149 146 140 188 263 261 246 241
153 148 147 147 151 151 153 150 147 148 136 124 118 108 93 76 85 47 352 338 32 60 75 70 62 47 36 15 347 33 5 306 181 154 140 137 146 149 166 181 308 311 311
148 147 143 142 143 139 151 149 148 154 147 137 131 123 106 94 70 75 46 17 351 45 41 59 72 74 59 31 27 14 322 280 235 173 137 122 118 111 105 105 15 346 348
148 140 138 136 131 132 143 146 151 158 157 150 150 138 115 105 107 113 123 87 3 34 62 65 76 154 183 134 96 304 269 253 283 13 59 51 51 47 120 168 174 209 232
152 146 145 143 141 133 140 139 141 144 153 157 145 132 119 106 79 91 146 153 159 149 132 144 175 198 210 111 162 201 250 346 318 327 352 359 0 203 223 243 239 226 238
153 155 152 147 139 133 114 73 89 80 39 356 82 121 110 104 54 18 350 25 8 67 213 153 136 125 138 127 124 110 357 47 314 311 309 299 283 275 299 314 303 283 272
160 162 161 154 150 150 140 120 63 62 75 64 43 33 76 80 99 88 56 39 21 312 261 131 111 78 354 7 332 121 86 9 328 318 323 316 303 297 289 280 283 284 284
165 163 165 157 157 161 154 150 135 108 87 81 77 71 81 108 118 123 121 117 230 249 225 104 39 356 345 342 344 344 351 5 318 305 304 302 299 290 287 282 282 287 288
168 156 168 157 157 156 155 156 152 151 146 132 116 113 123 133 146 162 190 215 158 181 19 24 5 350 342 333 335 332 324 314 297 298 301 299 294 287 282 280 279 293 291
166 151 159 154 158 152 154 157 155 154 145 136 134 130 139 152 162 180 222 239 94 113 64 15 333 322 331 329 327 322 314 307 306 290 290 292 287 282 283 284 280 260 268
153 124 166 172 162 155 155 157 154 153 152 152 155 143 151 175 160 152 184 241 320 17 356 316 319 330 335 325 311 300 289 291 294 289 300 292 288 288 286 281 284 282 278
156 147 174 193 171 162 160 160 160 163 165 163 151 123 170 205 165 164 171 190 237 248 314 307 297 313 315 296 299 290 288 297 306 310 307 299 293 289 288 285 283 279 282
158 161 172 171 161 160 162 163 161 162 163 163 145 142 181 227 178 148 151 141 151 36 14 299 303 344 335 318 309 300 299 316 329 322 311 304 298 293 292 289 289 287 282
163 160 159 157 154 149 172 164 156 158 160 160 157 157 171 191 179 181 205 182 116 119 244 273 299 331 355 309 309 310 324 338 324 312 300 295 296 294 291 294 290 288 290
159 161 160 156 158 170 168 163 171 170 167 167 164 165 172 184 207 206 220 191 189 199 228 246 268 37 344 296 293 2 19 346 317 304 304 300 300 303 299 295 290 295 294
168 169 170 168 171 176 174 173 174 168 161 173 181 183 188 199 206 208 201 191 206 213 226 222 220 198 203 287 339 32 39 354 320 315 290 285 292 299 303 299 298 297 298
178 179 181 181 178 179 181 183 186 183 185 192 198 207 212 215 217 202 194 211 223 208 220 219 216 217 247 250 39 52 59 299 297 300 292 286 290 301 308 294 296 294 297